When you browse on this site, cookies collect data to enhance your experience and personalize the content and advertising you see.
Visit our Privacy Policy to learn more. By continuing to use the site, you agree to this use of cookies and data.
  • In Österreich
  • Länderverzeichnis
  • Für 7 Tage
  • Wassertemperatur
  • Satellitenkarten
  • Wetterkarte
  • News
  • Widgets
  • user-avatar
    Anmelden

    Stündliche Wetter Megri

    Heute, 22 April, Montag

    Zeit Temperatur Niederschläge Wind Luftdruck Luftfeuchtigkeit
    00:00 -3°C° 0.1 mm 4 m/S 616 mmHg 85%
    01:00 -3°C° 0 mm 4 m/S 616 mmHg 85%
    02:00 -3°C° 0 mm 4 m/S 616 mmHg 85%
    03:00 -3°C° 0 mm 4 m/S 616 mmHg 85%
    04:00 -3°C° 0 mm 4 m/S 616 mmHg 84%
    05:00 -3°C° 0 mm 4 m/S 615 mmHg 83%
    06:00 -3°C° 0 mm 4 m/S 615 mmHg 83%
    07:00 -4°C° 0.1 mm 5 m/S 616 mmHg 79%
    08:00 -2°C° 0.1 mm 5 m/S 616 mmHg 75%
    09:00 -1°C° 0.1 mm 5 m/S 616 mmHg 71%
    10:00 -1°C° 0.4 mm 5 m/S 616 mmHg 72%
    11:00 -2°C° 0.4 mm 6 m/S 616 mmHg 74%
    12:00 -2°C° 0.4 mm 6 m/S 616 mmHg 75%
    13:00 -1°C° 0.2 mm 5 m/S 616 mmHg 75%
    14:00 -1°C° 0.2 mm 5 m/S 616 mmHg 74%
    15:00 -1°C° 0.2 mm 5 m/S 616 mmHg 74%
    16:00 -1°C° 0.4 mm 5 m/S 616 mmHg 77%
    17:00 -2°C° 0.4 mm 4 m/S 616 mmHg 79%
    18:00 -3°C° 0.4 mm 4 m/S 617 mmHg 81%
    19:00 -3°C° 0.3 mm 4 m/S 617 mmHg 83%
    20:00 -2°C° 0.3 mm 3 m/S 617 mmHg 84%
    21:00 -4°C° 0.3 mm 3 m/S 618 mmHg 86%
    22:00 -4°C° 0.4 mm 3 m/S 618 mmHg 86%
    23:00 -4°C° 0.4 mm 3 m/S 619 mmHg 87%

    Morgen, 23 April, Dienstag

    Zeit Temperatur Niederschläge Wind Luftdruck Luftfeuchtigkeit
    00:00 -4°C° 0.4 mm 3 m/S 619 mmHg 87%
    01:00 -4°C° 0.2 mm 3 m/S 619 mmHg 87%
    02:00 -5°C° 0.2 mm 3 m/S 619 mmHg 87%
    03:00 -4°C° 0.2 mm 2 m/S 619 mmHg 88%
    04:00 -4°C° 0 mm 2 m/S 620 mmHg 87%
    05:00 -4°C° 0 mm 2 m/S 620 mmHg 87%
    06:00 -4°C° 0 mm 2 m/S 620 mmHg 86%
    07:00 -3°C° 0 mm 2 m/S 621 mmHg 81%
    08:00 -2°C° 0 mm 2 m/S 622 mmHg 75%
    09:00 -1°C° 0 mm 2 m/S 623 mmHg 70%
    10:00 +1°C° 0 mm 2 m/S 623 mmHg 68%
    11:00 +2°C° 0 mm 2 m/S 624 mmHg 67%
    12:00 +3°C° 0 mm 2 m/S 624 mmHg 65%
    13:00 +3°C° 0 mm 2 m/S 624 mmHg 64%
    14:00 +4°C° 0 mm 2 m/S 624 mmHg 62%
    15:00 +4°C° 0 mm 2 m/S 624 mmHg 61%
    16:00 +4°C° 0 mm 2 m/S 624 mmHg 63%
    17:00 +4°C° 0 mm 2 m/S 624 mmHg 65%
    18:00 +3°C° 0 mm 2 m/S 624 mmHg 67%
    19:00 +2°C° 0 mm 2 m/S 624 mmHg 72%
    20:00 +1°C° 0 mm 2 m/S 624 mmHg 76%
    21:00 -1°C° 0 mm 2 m/S 624 mmHg 81%
    22:00 -1°C° 0 mm 2 m/S 624 mmHg 81%
    23:00 -1°C° 0 mm 2 m/S 624 mmHg 81%

    übermorgen, 24 April, Mittwoch

    Zeit Temperatur Niederschläge Wind Luftdruck Luftfeuchtigkeit
    00:00 0°C° 0 mm 1 m/S 624 mmHg 81%
    01:00 0°C° 0 mm 1 m/S 624 mmHg 78%
    02:00 0°C° 0 mm 1 m/S 624 mmHg 76%
    03:00 0°C° 0 mm 1 m/S 624 mmHg 74%
    04:00 0°C° 0 mm 1 m/S 624 mmHg 72%
    05:00 +1°C° 0 mm 1 m/S 625 mmHg 69%
    06:00 +1°C° 0 mm 1 m/S 625 mmHg 67%
    07:00 +2°C° 0 mm 1 m/S 625 mmHg 63%
    08:00 +3°C° 0 mm 1 m/S 626 mmHg 59%
    09:00 +5°C° 0 mm 1 m/S 626 mmHg 55%
    10:00 +6°C° 0 mm 1 m/S 626 mmHg 54%
    11:00 +6°C° 0 mm 1 m/S 626 mmHg 52%
    12:00 +7°C° 0 mm 1 m/S 626 mmHg 51%
    13:00 +8°C° 0 mm 1 m/S 625 mmHg 50%
    14:00 +8°C° 0 mm 1 m/S 625 mmHg 49%
    15:00 +8°C° 0 mm 1 m/S 625 mmHg 48%
    16:00 +8°C° 0 mm 1 m/S 625 mmHg 50%
    17:00 +6°C° 0 mm 2 m/S 624 mmHg 52%
    18:00 +6°C° 0 mm 2 m/S 624 mmHg 54%
    19:00 +5°C° 0 mm 2 m/S 624 mmHg 59%
    20:00 +4°C° 0 mm 2 m/S 624 mmHg 64%
    21:00 +2°C° 0 mm 2 m/S 624 mmHg 69%
    22:00 +3°C° 0 mm 1 m/S 623 mmHg 70%
    23:00 +3°C° 0 mm 1 m/S 623 mmHg 72%

    25 April, Donnerstag

    Zeit Temperatur Niederschläge Wind Luftdruck Luftfeuchtigkeit
    00:00 +3°C° 0 mm 1 m/S 623 mmHg 74%
    01:00 +2°C° 0 mm 1 m/S 623 mmHg 74%
    02:00 +2°C° 0 mm 1 m/S 623 mmHg 74%
    03:00 +2°C° 0 mm 1 m/S 623 mmHg 75%
    04:00 +2°C° 0 mm 1 m/S 623 mmHg 74%
    05:00 +2°C° 0 mm 1 m/S 624 mmHg 73%
    06:00 +2°C° 0 mm 2 m/S 624 mmHg 72%
    07:00 +3°C° 0 mm 2 m/S 625 mmHg 65%
    08:00 +4°C° 0 mm 2 m/S 625 mmHg 57%
    09:00 +6°C° 0 mm 1 m/S 626 mmHg 50%
    10:00 +6°C° 0 mm 2 m/S 626 mmHg 48%
    11:00 +7°C° 0 mm 2 m/S 626 mmHg 45%
    12:00 +8°C° 0 mm 2 m/S 626 mmHg 43%
    13:00 +9°C° 0 mm 2 m/S 626 mmHg 43%
    14:00 +9°C° 0 mm 2 m/S 626 mmHg 43%
    15:00 +9°C° 0 mm 3 m/S 626 mmHg 43%
    16:00 +9°C° 0 mm 3 m/S 625 mmHg 46%
    17:00 +8°C° 0 mm 3 m/S 625 mmHg 50%
    18:00 +7°C° 0 mm 3 m/S 625 mmHg 54%
    19:00 +5°C° 0 mm 3 m/S 625 mmHg 61%
    20:00 +4°C° 0 mm 3 m/S 625 mmHg 68%
    21:00 +3°C° 0 mm 3 m/S 625 mmHg 74%
    22:00 +4°C° 0 mm 2 m/S 625 mmHg 77%
    23:00 +3°C° 0 mm 2 m/S 625 mmHg 80%

    26 April, Freitag

    Zeit Temperatur Niederschläge Wind Luftdruck Luftfeuchtigkeit
    00:00 +3°C° 0 mm 2 m/S 624 mmHg 82%
    01:00 +3°C° 0 mm 2 m/S 624 mmHg 82%
    02:00 +2°C° 0 mm 2 m/S 624 mmHg 82%
    03:00 +2°C° 0 mm 2 m/S 624 mmHg 81%
    04:00 +2°C° 0 mm 2 m/S 624 mmHg 78%
    05:00 +3°C° 0 mm 2 m/S 624 mmHg 75%
    06:00 +3°C° 0 mm 2 m/S 625 mmHg 72%
    07:00 +4°C° 0 mm 2 m/S 625 mmHg 62%
    08:00 +5°C° 0 mm 2 m/S 625 mmHg 53%
    09:00 +7°C° 0 mm 2 m/S 626 mmHg 44%
    10:00 +8°C° 0 mm 3 m/S 626 mmHg 42%
    11:00 +9°C° 0 mm 3 m/S 626 mmHg 40%
    12:00 +10°C° 0 mm 3 m/S 626 mmHg 39%
    13:00 +10°C° 0 mm 3 m/S 625 mmHg 39%
    14:00 +10°C° 0 mm 3 m/S 625 mmHg 39%
    15:00 +10°C° 0 mm 3 m/S 625 mmHg 39%
    16:00 +10°C° 0.1 mm 3 m/S 625 mmHg 44%
    17:00 +9°C° 0.1 mm 3 m/S 624 mmHg 49%
    18:00 +8°C° 0.1 mm 3 m/S 624 mmHg 53%
    19:00 +7°C° 0.1 mm 3 m/S 624 mmHg 61%
    20:00 +5°C° 0.1 mm 3 m/S 624 mmHg 68%
    21:00 +4°C° 0.1 mm 3 m/S 624 mmHg 76%
    22:00 +4°C° 0 mm 3 m/S 624 mmHg 78%
    23:00 +5°C° 0 mm 2 m/S 624 mmHg 80%

    27 April, Samstag

    Zeit Temperatur Niederschläge Wind Luftdruck Luftfeuchtigkeit
    00:00 +4°C° 0 mm 2 m/S 623 mmHg 83%
    01:00 +4°C° 0 mm 2 m/S 623 mmHg 83%
    02:00 +3°C° 0 mm 2 m/S 623 mmHg 84%
    03:00 +3°C° 0 mm 2 m/S 622 mmHg 84%
    04:00 +3°C° 0 mm 2 m/S 623 mmHg 82%
    05:00 +3°C° 0 mm 2 m/S 623 mmHg 79%
    06:00 +3°C° 0 mm 2 m/S 623 mmHg 76%
    07:00 +6°C° 0 mm 1 m/S 624 mmHg 68%
    08:00 +7°C° 0 mm 1 m/S 624 mmHg 59%
    09:00 +9°C° 0 mm 1 m/S 624 mmHg 51%
    10:00 +10°C° 0 mm 1 m/S 624 mmHg 47%
    11:00 +11°C° 0 mm 1 m/S 625 mmHg 43%
    12:00 +12°C° 0 mm 1 m/S 625 mmHg 39%
    13:00 +13°C° 0 mm 1 m/S 625 mmHg 38%
    14:00 +13°C° 0 mm 1 m/S 624 mmHg 37%
    15:00 +14°C° 0 mm 2 m/S 624 mmHg 35%
    16:00 +13°C° 0 mm 2 m/S 624 mmHg 38%
    17:00 +12°C° 0 mm 2 m/S 624 mmHg 41%
    18:00 +12°C° 0 mm 1 m/S 624 mmHg 45%
    19:00 +10°C° 0 mm 1 m/S 623 mmHg 52%
    20:00 +9°C° 0 mm 1 m/S 623 mmHg 59%
    21:00 +8°C° 0 mm 1 m/S 623 mmHg 66%
    22:00 +8°C° 0 mm 1 m/S 623 mmHg 66%
    23:00 +8°C° 0 mm 1 m/S 623 mmHg 67%
    Mehr zeigen